Flag for Poland Weather past 2 weeks in Jastrzębie Zdrój, Poland

Now
37 °F

Passing clouds.


Feels Like: 37 °F
Forecast: 36 / 50 °F
Wind: 2 mph from North

Location: Ostrava / Mosnov

Current Time: Apr 18, 2015 at 5:56:35 AM

Latest Report: Apr 18, 2015 at 4:00 AM


Visibility: 13 mi

Pressure: 30.03 "Hg

Humidity: 74%

Dew point: 29 °F

Location of Jastrzębie ZdrójLocation

Historic Weather in Jastrzębie Zdrój — Graph

°F

Jastrzębie Zdrój temperature yesterday

Maximum temperature yesterday: 53 °F (at 4:00 PM)
Minimum temperature yesterday: 46 °F (at 10:00 AM)
Average temperature yesterday: 49 °F

Past Weeks' High & Low Weather Summary

 TemperatureHumidityPressure
High71 °F (Apr 16, 1:00 PM)96% (Apr 5, 12:00 AM)30.51 "Hg (Apr 5, 12:00 AM)
Low29 °F (Apr 5, 2:00 AM)31% (Apr 14, 11:00 AM)29.82 "Hg (Apr 16, 3:00 PM)
Average46 °F67%30.19 "Hg
* Reported Apr 3 4:00 AM — Apr 18 4:00 AM, Jastrzębie Zdrój, Weather by CustomWeather, © 2015

Note: Actual official high and low records may vary slightly from our data, if they occured in-between our weather recording intervals... More about our weather records

Advertising

Jastrzębie Zdrój weather history for previous 24 hours

 ConditionsComfort  
Time TempWeatherWind HumidityBarometerVisibility
4:00 AM
Sat, Apr 18
37 °FPassing clouds.2 mph74%30.03 "Hg12 mi
3:00 AM42 °FOvercast.5 mph66%30.01 "Hg12 mi
2:00 AM44 °FOvercast.6 mph61%30.00 "Hg12 mi
1:00 AM46 °FOvercast.6 mph57%29.98 "Hg12 mi
12:00 AM46 °FOvercast.3 mph57%29.96 "Hg12 mi
11:00 PM
Fri, Apr 17
47 °FOvercast.6 mph56%29.94 "Hg12 mi
10:00 PM48 °FOvercast.6 mph51%29.92 "Hg12 mi
9:00 PM49 °FOvercast.6 mph51%29.90 "Hg12 mi
8:00 PM50 °FOvercast.5 mph55%29.88 "Hg9 mi
7:00 PM51 °FOvercast.3 mph56%29.86 "Hg12 mi
6:00 PM53 °FOvercast.5 mph53%29.85 "Hg12 mi
5:00 PM52 °FOvercast.N/A55%29.86 "Hg12 mi
4:00 PM53 °FOvercast.N/A56%29.87 "Hg16 mi
3:00 PM50 °FOvercast.2 mph63%29.88 "Hg16 mi
2:00 PM51 °FOvercast.N/A53%29.90 "Hg12 mi
1:00 PM50 °FOvercast.N/A56%29.90 "Hg11 mi
12:00 PM48 °FOvercast.N/A66%29.92 "Hg11 mi
11:00 AM47 °FLight rain. Overcast.N/A77%29.92 "Hg11 mi
10:00 AM46 °FLight rain. Overcast.3 mph80%29.93 "Hg9 mi
9:00 AM47 °FLight rain. Overcast.2 mph81%29.92 "Hg9 mi
8:00 AM47 °FLight rain. Overcast.N/A84%29.91 "Hg9 mi
7:00 AM47 °FLight rain. Overcast.3 mph85%29.91 "Hg7 mi
6:00 AM49 °FLight rain. Overcast.N/A86%29.89 "Hg6 mi
Weather by CustomWeather, © 2015

See weather overviewHow to use our weather pages